| time (UTC) | temp C | wind direction | speed KPH | gust KPH | rain 1hr cm | rain 24hr cm | rain mn cm | humidity % | barometer mb |
| 20260505100100 | 12 | 232 | 1.6 | 6.4 | 0.00 | 0.00 | 0.00 | ||
| 20260505093035 | 12 | 250 | 0.0 | 4.8 | 0.00 | 0.00 | 0.00 | ||
| 20260505083044 | 12 | 208 | 0.0 | 3.2 | 0.00 | 0.00 | 0.00 | ||
| 20260505080053 | 12 | 212 | 0.0 | 11.3 | 0.00 | 0.00 | 0.00 | ||
| 20260505073034 | 12 | 161 | 1.6 | 6.4 | 0.00 | 0.00 | 0.00 | ||
| 20260505063046 | 13 | 263 | 1.6 | 8.0 | 0.00 | 0.00 | 0.00 | ||
| 20260505060056 | 13 | 268 | 1.6 | 9.7 | 0.00 | 0.00 | 0.00 | ||
| 20260505053053 | 13 | 265 | 0.0 | 8.0 | 0.00 | 0.00 | 0.00 | ||
| 20260505040106 | 13 | 252 | 1.6 | 12.9 | 0.00 | 0.00 | 0.00 | ||
| 20260505030058 | 13 | 249 | 3.2 | 8.0 | 0.00 | 0.00 | 0.00 | ||
| 20260505023038 | 13 | 262 | 3.2 | 11.3 | 0.00 | 0.00 | 0.00 | ||
| 20260505020109 | 14 | 230 | 1.6 | 12.9 | 0.00 | 0.00 | 0.00 | ||
| 20260505013050 | 14 | 277 | 3.2 | 12.9 | 0.00 | 0.00 | 0.00 | ||
| 20260505010100 | 15 | 252 | 1.6 | 14.5 | 0.00 | 0.00 | 0.00 | ||
| 20260505003041 | 15 | 246 | 3.2 | 14.5 | 0.00 | 0.00 | 0.00 | ||
| 20260505000046 | 16 | 242 | 3.2 | 11.3 | 0.00 | 0.00 | 0.00 | ||
| 20260504233046 | 18 | 300 | 3.2 | 12.9 | 0.00 | 0.00 | 0.00 | ||
| 20260504223043 | 19 | 238 | 3.2 | 12.9 | 0.00 | 0.00 | 0.00 | ||
| 20260504220055 | 19 | 4 | 3.2 | 19.3 | 0.00 | 0.00 | 0.00 | ||
| 20260504213036 | 20 | 296 | 1.6 | 9.7 | 0.00 | 0.00 | 0.00 | ||
| 20260504203049 | 18 | 347 | 4.8 | 12.9 | 0.00 | 0.00 | 0.00 | ||
| 20260504200100 | 18 | 212 | 1.6 | 11.3 | 0.00 | 0.00 | 0.00 | ||
| 20260504193041 | 18 | 249 | 6.4 | 11.3 | 0.00 | 0.00 | 0.00 | ||
| 20260504190105 | 18 | 327 | 1.6 | 9.7 | 0.00 | 0.00 | 0.00 | ||
| 20260504183047 | 18 | 331 | 0.0 | 9.7 | 0.00 | 0.00 | 0.00 | ||
| 20260504173043 | 16 | 230 | 3.2 | 9.7 | 0.00 | 0.00 | 0.00 | ||
| 20260504170113 | 15 | 249 | 1.6 | 8.0 | 0.00 | 0.00 | 0.00 |